Tracking 27122 objects as of 25-Mar-2023
HD Live streaming from Space Station
objects crossing your sky now

STARLINK-4725

Track STARLINK-4725 now!
10-day predictions
STARLINK-4725 is classified as:


NORAD ID: 53700
Int'l Code: 2022-107A
Perigee: 545.9 km
Apogee: 547.9 km
Inclination: 53.2 °
Period: 95.4 minutes
Semi major axis: 6917 km
RCS: Unknown
Launch date: September 5, 2022
Source: United States (US)
Launch site: AIR FORCE EASTERN TEST RANGE (AFETR)
Your satellite tracking list
Your tracking list is empty




NASA's NSSDC Master Catalog

Two Line Element Set (TLE):
1 53700U 22107A   23083.94670342 -.00001060  00000-0 -48532-4 0  9993
2 53700  53.2182  55.3929 0001458  96.8564 263.2594 15.08821406 31704
Source of the keplerian elements: AFSPC